Weather observations for the past three days for
Walla Walla Regional Airport
Imperial (Metric)
Date Time (pdt) Wind (mph) Vis. (mi.) Weather Sky Cond. Temperature (ºF) Relative Humidity Wind Chill (°F) Heat Index (°F) Pressure Precipitation (in)
Air Dwpt 6 hour altimeter (in) sea level (mb) 1 hr 3 hr 6 hr
Max. Min.
20 11:53 Calm 10.00 Smoke CLR 89.1 46.9 23% 86 30.09 1018.0
20 10:53 S 3 10.00 Smoke CLR 84.9 46.9 84.9 66 27% 82 30.11 1018.6
20 09:53 Vrbl 3 10.00 Smoke CLR 82 46.9 29% 80 30.12 1019.0
20 08:53 SW 5 10.00 Smoke CLR 80.1 46 30% 79 30.12 1019.0
20 07:53 S 3 10.00 Smoke CLR 78.1 45 31% 78 30.12 1018.9
20 06:53 SE 5 10.00 Smoke CLR 73 45 37% 30.11 1018.6
20 05:53 SE 5 10.00 Smoke CLR 69.1 43 39% 30.11 1018.5
20 04:53 SE 5 10.00 Smoke CLR 69.1 43 77 66.9 39% 30.1 1018.3
20 03:53 S 7 10.00 Smoke CLR 72 42.1 34% 30.09 1017.8
20 02:53 E 7 10.00 Smoke FEW080 70 41 35% 30.08 1017.6
20 01:53 S 7 10.00 Smoke BKN080 73 41 32% 30.08 1017.5
20 00:53 SE 6 10.00 Smoke CLR 73.9 39.9 29% 30.07 1017.4
19 23:53 E 8 10.00 Smoke BKN100 75.9 41 29% 77 30.06 1016.8
19 22:53 E 8 10.00 Smoke CLR 75.9 42.1 96.1 75 30% 77 30.05 1016.7
19 21:53 E 9 10.00 Smoke FEW120 78.1 42.1 28% 78 30.05 1016.5
19 20:53 SE 6 10.00 Smoke BKN110 84.9 44.1 24% 82 30.03 1016.0
19 19:53 SW 3 10.00 Smoke CLR 91 37 15% 87 30.02 1015.5
19 18:53 W 5 10.00 Smoke CLR 95 37.9 14% 90 30.02 1015.5
19 17:53 Vrbl 6 10.00 Smoke CLR 96.1 37.9 13% 91 30.02 1015.4
19 16:53 Vrbl 3 10.00 Smoke CLR 95 39.9 96.1 84.9 15% 91 30.03 1015.8
19 15:53 S 8 10.00 Smoke CLR 93.9 39 15% 90 30.05 1016.4
19 14:53 Vrbl 7 10.00 Smoke CLR 93 36 13% 89 30.07 1017.1
19 13:53 SW 10 10.00 Smoke CLR 91.9 44.1 19% 88 30.08 1017.6
19 12:53 SW 7 G 17 10.00 Smoke CLR 90 42.1 19% 86 30.09 1017.9
19 11:53 SW 10 10.00 Smoke CLR 89.1 43 20% 85 30.1 1018.2
19 10:53 SW 10 10.00 Smoke CLR 84.9 42.1 86 73 22% 82 30.11 1018.6
19 09:53 SW 13 G 21 10.00 Smoke CLR 82.9 43 24% 81 30.11 1018.6
19 08:53 SW 16 10.00 Smoke CLR 81 42.1 25% 79 30.11 1018.6
19 07:53 S 14 10.00 Smoke CLR 78.1 39.9 26% 78 30.11 1018.5
19 06:53 S 7 10.00 Smoke CLR 73.9 39 28% 30.1 1018.0
19 05:53 S 10 10.00 Smoke CLR 73 39 29% 30.08 1017.7
19 04:53 S 10 10.00 Smoke CLR 73 37.9 82 73 28% 30.07 1017.3
19 03:53 SW 12 10.00 Smoke CLR 73 39 29% 30.06 1016.8
19 02:53 S 14 10.00 Smoke CLR 75 39.9 28% 77 30.05 1016.5
19 01:53 S 10 10.00 Smoke CLR 75 41 29% 77 30.04 1016.1
19 00:53 S 7 10.00 Smoke CLR 77 39.9 26% 77 30.03 1015.7
18 23:53 S 9 10.00 Smoke CLR 79 39 24% 78 30.01 1015.1
18 22:53 SE 9 10.00 Smoke CLR 82 48 98.1 80.1 31% 81 29.99 1014.4
18 21:53 SE 7 10.00 Smoke CLR 84.9 50 30% 83 29.96 1013.6
18 20:53 S 7 10.00 Smoke CLR 87.1 51.1 29% 85 29.94 1012.8
18 19:53 W 9 10.00 Smoke CLR 91.9 48.9 23% 89 29.92 1012.1
18 18:53 Vrbl 6 10.00 Smoke CLR 97 52 22% 94 29.91 1011.6
18 17:53 SW 5 10.00 Smoke CLR 97 51.1 21% 94 29.91 1011.7
18 16:53 Calm 10.00 Smoke CLR 97 51.1 98.1 84.9 21% 94 29.92 1012.2
18 15:53 Vrbl 7 10.00 Smoke CLR 97 51.1 21% 94 29.93 1012.4
18 14:53 SE 3 10.00 Smoke CLR 93.9 51.1 23% 91 29.95 1013.2
18 13:53 Vrbl 3 10.00 Smoke CLR 93 51.1 24% 90 29.97 1013.8
18 12:53 S 6 10.00 Smoke CLR 90 51.1 26% 87 29.98 1014.1
18 11:53 SE 3 10.00 Smoke CLR 87.1 52 30% 85 29.99 1014.5
18 10:53 Vrbl 3 10.00 Smoke CLR 84.9 53.1 84.9 71.1 33% 83 30 1015.0
18 09:53 W 7 10.00 Smoke CLR 82.9 53.1 36% 82 30 1015.0
18 08:53 SW 6 10.00 Smoke CLR 80.1 53.1 39% 80 30.01 1015.3
18 07:53 S 8 10.00 Smoke CLR 77 53.1 43% 78 30.01 1015.2
18 06:53 S 5 10.00 Smoke CLR 73.9 53.1 48% 30 1014.8
18 05:53 S 5 10.00 Smoke CLR 72 53.1 52% 29.99 1014.3
18 04:53 S 9 10.00 Smoke CLR 73 53.1 75.9 70 50% 29.98 1014.0
18 03:53 S 9 10.00 Smoke CLR 73.9 52 46% 29.96 1013.4
18 02:53 SE 5 10.00 Smoke CLR 70 54 57% 29.95 1013.0
18 01:53 E 6 10.00 Smoke CLR 71.1 55 57% 29.94 1012.7
18 00:53 E 7 10.00 Smoke CLR 73.9 53.1 48% 29.93 1012.5
17 23:53 SE 7 10.00 Smoke CLR 75 54 48% 78 29.93 1012.3
17 22:53 E 8 10.00 Smoke CLR 75.9 55 98.1 75 48% 78 29.92 1012.0
17 21:53 E 8 10.00 Smoke CLR 80.1 54 41% 80 29.91 1011.6
17 20:53 E 7 10.00 Smoke CLR 81 53.1 38% 80 29.89 1011.1
17 19:53 SE 7 10.00 Smoke CLR 86 53.1 32% 84 29.87 1010.4
17 18:53 E 18 G 30 10.00 Smoke CLR 84.9 55 36% 84 29.88 1010.9
17 17:53 W 9 G 21 10.00 Smoke SCT070 BKN095 OVC110 95 45 18% 91 29.9 1011.5
17 16:53 Calm 10.00 Smoke FEW100 99 45 102.9 88 16% 95 29.83 1008.9
17 15:53 SE 9 10.00 Smoke CLR 100 43 14% 96 29.84 1009.4
17 14:53 S 16 G 28 10.00 Smoke CLR 102 42.1 13% 97 29.86 1009.8
17 13:53 Vrbl 5 10.00 Smoke CLR 102 37 11% 97 29.87 1010.4
17 12:53 E 8 10.00 Smoke CLR 100 34 10% 95 29.9 1011.4
Date Time (pdt) Wind (mph) Vis. (mi.) Weather Sky Cond. Air Dwpt Max. Min. Relative Humidity Wind Chill (°F) Heat Index (°F) altimeter (in) sea level (mb) 1 hr 3 hr 6 hr
6 hour
Temperature (ºF) Pressure Precipitation (in)